GER226N EDLW-EDDN

Flight info

Callsign GER226N
Flight time 0h 35m
Altitude 23000
Route GMH8Q/06 GMH DCT ARPEG Z52 OHMAR DCT KERAX DCT RITUP Z723 KOMIB T193 ERTES T194 DODAS DODAS1V
Aircraft E190/M-SDE3GILORVW/S

Departure

Time 2026-05-06 14:48
Airport Dortmund Airport (EDLW)

Arrival

Time 2026-05-06 15:23
Airport Nuremberg Airport (EDDN)
Time Latitude Longitude Altitude Speed Heading
2026-05-06 14:21 51.51561 7.61224 428 ft 0 kts 333°
2026-05-06 14:45 51.51577 7.61211 426 ft 3 kts 332°
2026-05-06 14:45 51.51604 7.61187 428 ft 5 kts 330°
2026-05-06 14:45 51.51610 7.61138 428 ft 6 kts 245°
2026-05-06 14:45 51.51588 7.61056 425 ft 9 kts 246°
2026-05-06 14:46 51.51554 7.60949 430 ft 11 kts 240°
2026-05-06 14:46 51.51509 7.60816 421 ft 16 kts 240°
2026-05-06 14:46 51.51452 7.60657 416 ft 15 kts 240°
2026-05-06 14:46 51.51415 7.60553 415 ft 9 kts 240°
2026-05-06 14:47 51.51376 7.60439 420 ft 15 kts 242°
2026-05-06 14:47 51.51372 7.60305 416 ft 12 kts 313°
2026-05-06 14:47 51.51447 7.60232 414 ft 13 kts 331°
2026-05-06 14:47 51.51489 7.60245 412 ft 7 kts 53°
2026-05-06 14:48 51.51615 7.60605 413 ft 73 kts 60°
2026-05-06 14:48 51.51974 7.61615 416 ft 137 kts 59°
2026-05-06 14:48 51.52505 7.63120 804 ft 164 kts 56°
2026-05-06 14:48 51.53123 7.64781 1691 ft 174 kts 57°
2026-05-06 14:49 51.53712 7.66472 2381 ft 182 kts 59°
2026-05-06 14:49 51.54358 7.68402 2636 ft 212 kts 59°
2026-05-06 14:49 51.55025 7.70519 3393 ft 219 kts 64°
2026-05-06 14:49 51.55323 7.73045 3835 ft 245 kts 92°
2026-05-06 14:50 51.54857 7.75754 4402 ft 262 kts 116°
2026-05-06 14:50 51.53677 7.78043 5005 ft 273 kts 146°
2026-05-06 14:50 51.51949 7.79187 5851 ft 270 kts 174°
2026-05-06 14:50 51.50096 7.79019 6735 ft 263 kts 186°
2026-05-06 14:51 51.48279 7.79519 7422 ft 275 kts 156°
2026-05-06 14:51 51.46812 7.81497 8143 ft 283 kts 129°
2026-05-06 14:51 51.45782 7.84222 8842 ft 289 kts 122°
2026-05-06 14:51 51.44798 7.87055 9560 ft 292 kts 123°
2026-05-06 14:52 51.43748 7.89862 10192 ft 299 kts 126°
2026-05-06 14:52 51.42558 7.92731 10424 ft 319 kts 128°
2026-05-06 14:52 51.41241 7.95716 10723 ft 335 kts 129°
2026-05-06 14:52 51.39850 7.98780 11211 ft 342 kts 130°
2026-05-06 14:53 51.38214 8.01535 11819 ft 341 kts 147°
2026-05-06 14:53 51.36121 8.03280 12485 ft 341 kts 160°
2026-05-06 14:53 51.33909 8.04697 13150 ft 344 kts 162°
2026-05-06 14:53 51.31657 8.06051 13790 ft 348 kts 162°
2026-05-06 14:54 51.29371 8.07390 14399 ft 351 kts 163°
2026-05-06 14:54 51.27090 8.08846 14979 ft 358 kts 154°
2026-05-06 14:54 51.25161 8.11417 15576 ft 368 kts 133°
2026-05-06 14:54 51.23603 8.14676 16169 ft 371 kts 129°
2026-05-06 14:55 51.22112 8.18063 16741 ft 374 kts 128°
2026-05-06 14:55 51.20636 8.21505 17288 ft 378 kts 127°
2026-05-06 14:55 51.19150 8.24981 17866 ft 380 kts 128°
2026-05-06 14:55 51.17501 8.28294 18391 ft 382 kts 133°
2026-05-06 14:56 51.15814 8.31577 18917 ft 385 kts 133°
2026-05-06 14:56 51.14096 8.34839 19447 ft 387 kts 133°
2026-05-06 14:56 51.12355 8.38132 19963 ft 390 kts 133°
2026-05-06 14:56 51.10601 8.41452 20479 ft 393 kts 133°
2026-05-06 14:57 51.08832 8.44788 20961 ft 396 kts 133°
2026-05-06 14:57 51.07050 8.48156 21419 ft 399 kts 133°
2026-05-06 14:57 51.05282 8.51488 21851 ft 401 kts 133°
2026-05-06 14:57 51.03488 8.54874 22110 ft 400 kts 134°
2026-05-06 14:58 51.01677 8.58279 22370 ft 407 kts 134°
2026-05-06 14:58 50.99830 8.61741 22631 ft 414 kts 134°
2026-05-06 14:58 50.97975 8.65228 22719 ft 412 kts 134°
2026-05-06 14:58 50.96124 8.68699 22763 ft 410 kts 134°
2026-05-06 14:59 50.94330 8.72062 22753 ft 388 kts 134°
2026-05-06 14:59 50.92606 8.75279 22751 ft 381 kts 135°
2026-05-06 14:59 50.90879 8.78498 22770 ft 385 kts 134°
2026-05-06 14:59 50.89139 8.81743 22781 ft 386 kts 134°
2026-05-06 15:00 50.87400 8.84986 22775 ft 386 kts 134°
2026-05-06 15:00 50.85660 8.88221 22773 ft 386 kts 134°
2026-05-06 15:00 50.83922 8.91452 22776 ft 386 kts 135°
2026-05-06 15:00 50.82177 8.94687 22775 ft 386 kts 134°
2026-05-06 15:01 50.80436 8.97913 22763 ft 386 kts 135°
2026-05-06 15:01 50.78638 9.01041 22763 ft 385 kts 136°
2026-05-06 15:01 50.76883 9.04246 22769 ft 386 kts 134°
2026-05-06 15:01 50.75133 9.07473 22763 ft 386 kts 134°
2026-05-06 15:02 50.73393 9.10697 22757 ft 386 kts 134°
2026-05-06 15:02 50.71653 9.13918 22765 ft 386 kts 134°
2026-05-06 15:02 50.69909 9.17141 22767 ft 386 kts 135°
2026-05-06 15:02 50.68164 9.20362 22758 ft 386 kts 135°
2026-05-06 15:03 50.66421 9.23574 22759 ft 386 kts 135°
2026-05-06 15:03 50.64676 9.26788 22767 ft 386 kts 135°
2026-05-06 15:03 50.62928 9.29999 22761 ft 386 kts 135°
2026-05-06 15:03 50.61182 9.33208 22757 ft 385 kts 135°
2026-05-06 15:04 50.59438 9.36397 22753 ft 383 kts 134°
2026-05-06 15:04 50.57709 9.39575 22772 ft 383 kts 134°
2026-05-06 15:04 50.55971 9.42750 22759 ft 383 kts 134°
2026-05-06 15:04 50.54237 9.45925 22758 ft 383 kts 134°
2026-05-06 15:05 50.52498 9.49095 22767 ft 383 kts 134°
2026-05-06 15:05 50.50757 9.52270 22761 ft 383 kts 134°
2026-05-06 15:05 50.49033 9.55450 22754 ft 383 kts 133°
2026-05-06 15:05 50.47249 9.58544 22752 ft 379 kts 137°
2026-05-06 15:06 50.45405 9.61504 22761 ft 379 kts 137°
2026-05-06 15:06 50.43550 9.64447 22766 ft 379 kts 137°
2026-05-06 15:06 50.41690 9.67379 22750 ft 379 kts 137°
2026-05-06 15:06 50.39829 9.70305 22745 ft 379 kts 137°
2026-05-06 15:07 50.37959 9.73245 22254 ft 380 kts 137°
2026-05-06 15:07 50.36080 9.76199 21722 ft 394 kts 137°
2026-05-06 15:07 50.34154 9.79225 21224 ft 398 kts 137°
2026-05-06 15:07 50.32206 9.82268 20710 ft 394 kts 137°
2026-05-06 15:08 50.30280 9.85278 20198 ft 388 kts 137°
2026-05-06 15:08 50.28380 9.88255 19705 ft 385 kts 137°
2026-05-06 15:08 50.26492 9.91199 19275 ft 382 kts 137°
2026-05-06 15:08 50.24620 9.94125 18869 ft 379 kts 137°
2026-05-06 15:09 50.22757 9.97026 18461 ft 377 kts 137°
2026-05-06 15:09 50.20901 9.99894 18061 ft 374 kts 138°
2026-05-06 15:09 50.19076 10.02780 17613 ft 373 kts 134°
2026-05-06 15:09 50.17255 10.05620 17139 ft 368 kts 144°
2026-05-06 15:10 50.15136 10.07816 16609 ft 365 kts 151°
2026-05-06 15:10 50.12976 10.09854 16032 ft 362 kts 149°
2026-05-06 15:10 50.10887 10.12016 15480 ft 359 kts 149°
2026-05-06 15:10 50.08812 10.14165 14936 ft 357 kts 148°
2026-05-06 15:11 50.06758 10.16306 14400 ft 355 kts 148°
2026-05-06 15:11 50.04716 10.18435 13868 ft 352 kts 148°
2026-05-06 15:11 50.02683 10.20553 13317 ft 350 kts 148°
2026-05-06 15:11 50.00685 10.22632 12737 ft 347 kts 148°
2026-05-06 15:12 49.98671 10.24722 12165 ft 344 kts 148°
2026-05-06 15:12 49.96689 10.26781 11601 ft 341 kts 148°
2026-05-06 15:12 49.94722 10.28816 11038 ft 336 kts 148°
2026-05-06 15:12 49.92809 10.30800 10634 ft 324 kts 148°
2026-05-06 15:13 49.90975 10.32701 10372 ft 311 kts 148°
2026-05-06 15:13 49.89210 10.34524 10108 ft 300 kts 149°
2026-05-06 15:13 49.87499 10.36293 9891 ft 291 kts 149°
2026-05-06 15:13 49.85833 10.38007 9807 ft 286 kts 149°
2026-05-06 15:14 49.84172 10.39721 9783 ft 288 kts 148°
2026-05-06 15:14 49.82497 10.41444 9778 ft 289 kts 148°
2026-05-06 15:14 49.80823 10.43170 9779 ft 289 kts 148°
2026-05-06 15:14 49.79147 10.44895 9772 ft 289 kts 148°
2026-05-06 15:15 49.77477 10.46609 9770 ft 287 kts 149°
2026-05-06 15:15 49.75815 10.48317 9776 ft 287 kts 148°
2026-05-06 15:15 49.74152 10.50025 9778 ft 287 kts 149°
2026-05-06 15:15 49.72485 10.51732 9779 ft 287 kts 149°
2026-05-06 15:16 49.70822 10.53441 9771 ft 285 kts 149°
2026-05-06 15:16 49.69177 10.55133 9461 ft 284 kts 149°
2026-05-06 15:16 49.67527 10.56801 8961 ft 283 kts 149°
2026-05-06 15:16 49.65893 10.58468 8489 ft 281 kts 149°
2026-05-06 15:17 49.64261 10.60136 8027 ft 280 kts 148°
2026-05-06 15:17 49.62642 10.61789 7555 ft 279 kts 148°
2026-05-06 15:17 49.61053 10.63410 7118 ft 277 kts 148°
2026-05-06 15:17 49.59444 10.65050 6653 ft 277 kts 148°
2026-05-06 15:18 49.57841 10.66680 6351 ft 277 kts 148°
2026-05-06 15:18 49.56258 10.68300 6154 ft 269 kts 148°
2026-05-06 15:18 49.54704 10.69917 5732 ft 270 kts 144°
2026-05-06 15:18 49.53498 10.72068 5606 ft 261 kts 118°
2026-05-06 15:19 49.53026 10.74710 5352 ft 250 kts 97°
2026-05-06 15:19 49.52859 10.77343 4941 ft 244 kts 99°
2026-05-06 15:19 49.52578 10.79878 4522 ft 236 kts 102°
2026-05-06 15:19 49.52328 10.82303 4153 ft 230 kts 99°
2026-05-06 15:20 49.52118 10.84709 3823 ft 222 kts 99°
2026-05-06 15:20 49.51890 10.86977 3499 ft 208 kts 100°
2026-05-06 15:20 49.51685 10.89118 3220 ft 197 kts 99°
2026-05-06 15:20 49.51490 10.91171 2989 ft 189 kts 99°
2026-05-06 15:21 49.51300 10.93104 2791 ft 178 kts 99°
2026-05-06 15:21 49.51122 10.94954 2545 ft 173 kts 98°
2026-05-06 15:21 49.50947 10.96778 2321 ft 171 kts 99°
2026-05-06 15:21 49.50779 10.98507 2252 ft 156 kts 98°
2026-05-06 15:22 49.50630 11.00124 1962 ft 149 kts 99°
2026-05-06 15:22 49.50482 11.01632 1697 ft 139 kts 99°
2026-05-06 15:22 49.50344 11.03089 1432 ft 137 kts 98°
2026-05-06 15:22 49.50199 11.04517 1238 ft 135 kts 98°
2026-05-06 15:23 49.50055 11.05925 1066 ft 132 kts 98°
2026-05-06 15:23 49.49929 11.07199 1023 ft 105 kts 98°
2026-05-06 15:23 49.49871 11.07791 1024 ft 62 kts 98°
2026-05-06 15:23 49.49824 11.08268 1032 ft 39 kts 98°
2026-05-06 15:24 49.49793 11.08528 1036 ft 10 kts 118°
2026-05-06 15:24 49.49722 11.08566 1035 ft 13 kts 189°
2026-05-06 15:24 49.49655 11.08470 1033 ft 12 kts 232°
2026-05-06 15:24 49.49602 11.08368 1031 ft 12 kts 217°
2026-05-06 15:25 49.49532 11.08319 1028 ft 12 kts 232°
2026-05-06 15:25 49.49546 11.08186 1024 ft 12 kts 278°
2026-05-06 15:25 49.49558 11.08042 1026 ft 15 kts 278°
2026-05-06 15:25 49.49575 11.07878 1022 ft 15 kts 278°
2026-05-06 15:26 49.49590 11.07726 1022 ft 13 kts 279°
2026-05-06 15:26 49.49564 11.07668 1024 ft 7 kts 187°
2026-05-06 15:26 49.49529 11.07660 1022 ft 2 kts 189°